CanjetBLOCKVirtuelBLOCKQcBLOCKBLOCKBLOCKBLOCKBLOCKBLOCKBLOCKBLOCKBLOCKBLOCKBLOCKvolsBLOCKavecBLOCKFS-kACARS2021-12-01BLOCK04colon58pm

volsBLOCKBLOCKBLOCKBLOCKBLOCKpilotesBLOCKBLOCKBLOCKBLOCKBLOCKBLOCKBLOCKBLOCKtypeBLOCKBLOCKdepBLOCKBLOCKarrBLOCKBLOCKBLOCKBLOCKBLOCKaltBLOCKBLOCKBLOCKBLOCKBLOCKgsBLOCKBLOCKBLOCKBLOCKstatut

CJA9999MichelBLOCKAB737TFFR-KMIA0ft0ktsarrived












BLOCKAppuyerBLOCKsurBLOCKF5BLOCKpourBLOCKactualiserBLOCKBLOCKBLOCKMiseBLOCKaBLOCKjourcolonBLOCK16colon58colon43pmCanjetBLOCKvirtuelBLOCKQC

Bienvenue chez Canjetvirtuel-Q

Publié par Michel Ayotte le 2013-06-14

 

Canjetvirtuel-Québec est une compagnie aérienne virtuelle qui a été fondée par 2 passionnés de la simulation de vol.

Elle est opérée avec les Boeing 737. Exceptionnelement et pour votre plaisir tous les autres versions de Boeing et Airbus sont autorisées.

Ces appareils pouvant faire des vols cargos ou des vols passagers, que ce soit au Canada, Europe, États-Unis, Mexique, Caraïbes et autres destinations mondiales.

Vous trouverez votre place comme pilote chez nous!



Avis

Aux fins de la simulation de vol seulement. CanjetVirtuel Québec n'est en aucun cas affilié avec n'importe quelle compagnie aérienne du monde réel. CanjetVirtuel Québec est un site à but non lucratif gérée par des amateurs de simulation de vol. Toutes les images sont la propriété exclusive de leurs propriétaires respectifs.
| propulsé par phpVMS, © 2013-2020.

Notice

For flight simulation purposes only. CanjetVirtuel Quebec is in no way affiliated with any real world airline. CanjetVirtuel Quebec is a non-profit site run by flight simulation enthusiasts. All images are the sole property of their respective owners.
| powered by phpVMS, © 2013-2020.

Affiliations

Vatsim

Les statistiques du site

Nombre de pilotes: 15
Total des vols effectués: 8338
Trajets disponibles: 736
Passagers transportés: 2091531
Total des heures de vol: 28355
Distance totale (NM): 11103148
Pilotes en ligne: 0

Nouvelles

Bienvenue chez Canjetvirtuel-Q
06/14/2013

METAR

CYHZ 012100Z 17005KT 15SM FEW034 SCT240 01/M04 A3004 RMK CU2CI1 SLP180

CYQB 012100Z 28006KT 30SM FEW036 FEW180 FEW200 M04/M09 A3002 RMK SC1CI1CI1 SC TR CI TR SLP172

CYUL 012100Z 24009KT 30SM FEW180 BKN240 M03/M10 A3010 RMK AC2CI3 SLP198

CYYZ 012100Z 19007KT 15SM FEW040 OVC100 05/M03 A2998 RMK CU1AS7 SLP160